Vertical_Velocity
-1 5 0 3 4 1 1 1 -1 2 -0 0 -0 -0 -0 0 0 0 0 -1 -1 -2
15 5 -1 3 4 -0 4 -3 2 1 -1 0 -1 -1 -0 0 -0 -0 0 -2 -1 0
7 -0 -1 1 7 3 2 -1 0 0 -2 -2 -0 1 1 0 0 -1 -1 0 -1 -2
2 -3 4 7 3 0 -0 -0 0 -1 -2 -0 1 0 1 -0 -1 0 -1 -2 0 -1
0 4 5 5 -0 0 -0 1 -1 -1 0 0 2 0 -1 -2 -0 -1 -0 -1 -1 0
2 1 4 -0 1 1 1 -0 -1 1 1 0 -0 0 0 -0 -2 -1 -1 -1 -1 -1
-1 1 2 2 2 2 -1 0 -0 -1 -1 -1 -0 -1 0 -0 -0 -0 -0 -1 -2 -1
1 3 2 -0 1 7 1 -1 -1 0 -1 6 3 -2 -1 0 -0 1 1 -0 -1 -3
3 1 -4 -1 1 -2 -2 3 2 5 4 1 3 -1 0 1 1 0 -0 0 -3 -2
7 14 4 1 -2 3 2 4 1 6 0 -2 5 -1 1 1 1 0 -3 -1 1 3
91 101 -1 8 2 0 5 8 -1 -1 -1 2 1 0 1 2 -2 -3 -0 1 -0 -3
-1 -13 3 23 10 9 -3 -0 5 2 -0 -2 4 2 -2 -3 -2 2 3 -0 -4 -2
4 -2 3 3 -2 3 4 0 -1 -1 1 -0 -3 -2 -1 0 1 4 1 4 -2 -5
13 -2 -2 -0 4 -1 -1 1 1 -2 -4 -3 -2 -1 -0 -1 0 -1 4 0 2 -1
Height
5706 5708 5711 5712 5714 5715 5717 5718 5718 5716 5716 5715 5712 5710 5708 5705 5702 5698 5695 5691 5687 5684
5695 5699 5701 5703 5705 5707 5708 5709 5708 5709 5708 5707 5704 5701 5699 5695 5692 5688 5685 5681 5677 5672
5687 5690 5691 5694 5697 5699 5700 5700 5701 5701 5700 5698 5695 5692 5689 5686 5682 5679 5675 5670 5666 5660
5676 5678 5682 5686 5688 5690 5690 5691 5692 5692 5691 5689 5686 5682 5680 5676 5672 5668 5663 5659 5654 5649
5665 5670 5675 5678 5680 5681 5682 5683 5684 5683 5682 5679 5676 5674 5670 5666 5662 5657 5652 5647 5642 5636
5656 5662 5666 5670 5671 5673 5674 5675 5674 5674 5672 5669 5667 5664 5660 5655 5650 5645 5640 5635 5629 5622
5649 5655 5660 5663 5664 5666 5666 5666 5666 5664 5663 5660 5657 5653 5649 5644 5639 5634 5628 5622 5615 5608
5644 5649 5654 5655 5656 5658 5658 5658 5657 5655 5652 5650 5646 5642 5638 5633 5628 5623 5616 5609 5602 5595
5640 5643 5645 5648 5649 5650 5650 5650 5648 5646 5644 5640 5636 5631 5627 5622 5617 5610 5603 5597 5588 5579
5629 5635 5638 5642 5643 5644 5643 5642 5639 5637 5634 5631 5626 5622 5617 5611 5605 5598 5591 5582 5574 5565
5618 5623 5633 5637 5638 5636 5635 5632 5630 5628 5624 5620 5616 5611 5606 5599 5593 5585 5576 5568 5560 5551
5625 5626 5629 5629 5630 5627 5627 5625 5621 5617 5614 5610 5606 5600 5594 5587 5580 5572 5564 5554 5544 5536
5619 5623 5623 5621 5621 5620 5618 5615 5613 5609 5605 5599 5594 5589 5583 5574 5566 5561 5552 5541 5530 5519
5615 5615 5616 5616 5614 5613 5611 5608 5604 5599 5594 5589 5583 5576 5569 5561 5554 5546 5537 5526 5515 5504